Tracking 29781 objects as of 15-Oct-2024
HD Live streaming from Space Station
objects crossing your sky now

DELTA 1 DEB

Track DELTA 1 DEB now!
10-day predictions


NORAD ID: 21353
Int'l Code: 1975-052BX
Perigee: 1,100.2 km
Apogee: 1,922.0 km
Inclination: 99.5 °
Period: 116.1 minutes
Semi major axis: 7882 km
RCS: 0.0647 m2 (small)
Launch date: June 12, 1975
Source: United States (US)
Launch site: AIR FORCE WESTERN TEST RANGE (AFWTR)

Note: This is SATELLITE DEBRIS
Your satellite tracking list
Your tracking list is empty




NASA's NSSDC Master Catalog

Two Line Element Set (TLE):
1 21353U 75052BX  24288.48399388  .00000090  00000-0  54856-3 0  9999
2 21353  99.5290 270.1780 0521302 138.9332 348.5162 12.40632415511898
Source of the keplerian elements: AFSPC